,,,PA_Meas_PMT16A,,PR_Meas_QMR101_102,,RH_Meas_QMH101,,SR_Meas_QMS101,,TA_Meas_QMH101,,GenWind,,GenWind,
date,time,status,PA,status,PR,status,RH,status,SR,status,TA,status,DirAvg,status,SpdAvg,
2014-02-23, 00:00:04,VALID,1011.92,VALID,0,VALID,102.635,VALID,0,VALID,22.5251,VALID,301,VALID,0,
2014-02-23, 00:01:04,VALID,1011.88,VALID,0,VALID,102.727,VALID,0,VALID,22.5056,VALID,300,VALID,0,
2014-02-23, 00:02:04,VALID,1011.88,VALID,0,VALID,102.704,VALID,0,VALID,22.5251,VALID,301,VALID,0,
2014-02-23, 00:03:04,VALID,1011.83,VALID,0,VALID,102.429,VALID,0,VALID,22.5251,VALID,301,VALID,0,
2014-02-23, 00:04:04,VALID,1011.83,VALID,0,VALID,102.223,VALID,0,VALID,22.5056,VALID,300,VALID,0,
2014-02-23, 00:05:04,VALID,1011.83,VALID,0,VALID,102.254,VALID,0.112112,VALID,22.5056,VALID,300,VALID,0,
2014-02-23, 00:06:04,VALID,1011.82,VALID,0,VALID,102.368,VALID,0,VALID,22.465,VALID,301,VALID,0,
2014-02-23, 00:07:04,VALID,1011.84,VALID,0,VALID,102.551,VALID,0,VALID,22.465,VALID,301,VALID,0,
2014-02-23, 00:08:04,VALID,1011.84,VALID,0,VALID,102.627,VALID,0,VALID,22.4667,VALID,301,VALID,0,
2014-02-23, 00:09:04,VALID,1011.8,VALID,0,VALID,102.734,VALID,0.112112,VALID,22.465,VALID,300,VALID,0,
2014-02-23, 00:10:04,VALID,1011.85,VALID,0,VALID,102.955,VALID,0.112112,VALID,22.4455,VALID,301,VALID,0,
2014-02-23, 00:11:04,VALID,1011.83,VALID,0,VALID,103.07,VALID,0.112112,VALID,22.426,VALID,301,VALID,0,
2014-02-23, 00:12:04,VALID,1011.82,VALID,0,VALID,103.131,VALID,0.112112,VALID,22.426,VALID,300,VALID,0,
2014-02-23, 00:13:04,VALID,1011.77,VALID,0,VALID,103.352,VALID,0,VALID,22.426,VALID,300,VALID,0,
2014-02-23, 00:14:04,VALID,1011.76,VALID,0,VALID,103.611,VALID,0.112112,VALID,22.4472,VALID,300,VALID,0,
2014-02-23, 00:15:04,VALID,1011.75,VALID,0,VALID,103.748,VALID,0.112112,VALID,22.4065,VALID,302,VALID,0,
2014-02-23, 00:16:04,VALID,1011.73,VALID,0,VALID,103.901,VALID,0,VALID,22.3887,VALID,300,VALID,0,
2014-02-23, 00:17:04,VALID,1011.7,VALID,0,VALID,104,VALID,0,VALID,22.3887,VALID,301,VALID,0,
2014-02-23, 00:18:04,VALID,1011.71,VALID,0,VALID,103.931,VALID,0,VALID,22.4082,VALID,301,VALID,0,
2014-02-23, 00:19:04,VALID,1011.67,VALID,0,VALID,103.703,VALID,0,VALID,22.4277,VALID,301,VALID,0,
2014-02-23, 00:20:04,VALID,1011.66,VALID,0,VALID,103.527,VALID,0,VALID,22.4294,VALID,301,VALID,0,
2014-02-23, 00:21:04,VALID,1011.66,VALID,0,VALID,103.619,VALID,0,VALID,22.4082,VALID,300,VALID,0,
2014-02-23, 00:22:04,VALID,1011.63,VALID,0,VALID,103.626,VALID,0,VALID,22.3887,VALID,300,VALID,0,
2014-02-23, 00:23:04,VALID,1011.61,VALID,0,VALID,103.573,VALID,0,VALID,22.3693,VALID,300,VALID,0,
2014-02-23, 00:24:04,VALID,1011.61,VALID,0,VALID,103.848,VALID,0,VALID,22.3693,VALID,300,VALID,0,
2014-02-23, 00:25:04,VALID,1011.56,VALID,0,VALID,103.947,VALID,0,VALID,22.3498,VALID,300,VALID,0,
2014-02-23, 00:26:04,VALID,1011.57,VALID,0,VALID,103.97,VALID,0,VALID,22.371,VALID,300,VALID,0,
2014-02-23, 00:27:04,VALID,1011.57,VALID,0,VALID,104,VALID,0,VALID,22.3887,VALID,301,VALID,0,
2014-02-23, 00:28:04,VALID,1011.58,VALID,0,VALID,104,VALID,0,VALID,22.4082,VALID,301,VALID,0,
2014-02-23, 00:29:04,VALID,1011.54,VALID,0,VALID,104,VALID,0,VALID,22.4489,VALID,300,VALID,0,
2014-02-23, 00:30:04,VALID,1011.57,VALID,0,VALID,104,VALID,0,VALID,22.4667,VALID,300,VALID,0,
2014-02-23, 00:31:04,VALID,1011.57,VALID,0,VALID,104,VALID,0.112112,VALID,22.5056,VALID,301,VALID,0,
2014-02-23, 00:32:04,VALID,1011.58,VALID,0,VALID,104,VALID,0,VALID,22.4844,VALID,300,VALID,0,
2014-02-23, 00:33:04,VALID,1011.58,VALID,0,VALID,104,VALID,0.112112,VALID,22.5039,VALID,301,VALID,0,
2014-02-23, 00:34:04,VALID,1011.56,VALID,0,VALID,104,VALID,0.112112,VALID,22.5039,VALID,300,VALID,0,
2014-02-23, 00:35:04,VALID,1011.57,VALID,0,VALID,104,VALID,0.112112,VALID,22.5234,VALID,301,VALID,0,
2014-02-23, 00:36:04,VALID,1011.58,VALID,0,VALID,104,VALID,0.112112,VALID,22.5623,VALID,300,VALID,0,
2014-02-23, 00:37:04,VALID,1011.58,VALID,0,VALID,104,VALID,0.112112,VALID,22.5429,VALID,301,VALID,0,
2014-02-23, 00:38:04,VALID,1011.57,VALID,0,VALID,103.756,VALID,0,VALID,22.5429,VALID,301,VALID,0,
2014-02-23, 00:39:04,VALID,1011.56,VALID,0,VALID,103.787,VALID,0,VALID,22.5623,VALID,300,VALID,0,
2014-02-23, 00:40:04,VALID,1011.55,VALID,0,VALID,103.756,VALID,0.112112,VALID,22.5429,VALID,300,VALID,0,
2014-02-23, 00:41:04,VALID,1011.57,VALID,0,VALID,103.87,VALID,0.112112,VALID,22.5623,VALID,301,VALID,0,
2014-02-23, 00:42:05,VALID,1011.54,VALID,0,VALID,104,VALID,0.112112,VALID,22.5835,VALID,301,VALID,0,
2014-02-23, 00:43:05,VALID,1011.51,VALID,0,VALID,103.901,VALID,0.112112,VALID,22.5623,VALID,300,VALID,0,
2014-02-23, 00:44:05,VALID,1011.51,VALID,0,VALID,104,VALID,0.112112,VALID,22.5429,VALID,300,VALID,0,
2014-02-23, 00:45:05,VALID,1011.49,VALID,0,VALID,103.672,VALID,0.112112,VALID,22.5429,VALID,300,VALID,0,
2014-02-23, 00:46:05,VALID,1011.5,VALID,0,VALID,103.466,VALID,0,VALID,22.5429,VALID,301,VALID,0,
2014-02-23, 00:47:05,VALID,1011.47,VALID,0,VALID,103.154,VALID,0.112112,VALID,22.5234,VALID,301,VALID,0,
2014-02-23, 00:48:05,VALID,1011.48,VALID,0,VALID,102.536,VALID,0.112112,VALID,22.5234,VALID,300,VALID,0,
2014-02-23, 00:49:05,VALID,1011.48,VALID,0,VALID,102.437,VALID,0.112112,VALID,22.4844,VALID,300,VALID,0,
2014-02-23, 00:50:05,VALID,1011.49,VALID,0,VALID,102.627,VALID,0.112112,VALID,22.465,VALID,301,VALID,0,
2014-02-23, 00:51:05,VALID,1011.51,VALID,0,VALID,103.085,VALID,0,VALID,22.4455,VALID,300,VALID,0,
2014-02-23, 00:52:05,VALID,1011.5,VALID,0,VALID,103.184,VALID,0.112112,VALID,22.4472,VALID,301,VALID,0,
2014-02-23, 00:53:05,VALID,1011.49,VALID,0,VALID,103.436,VALID,0.112112,VALID,22.387,VALID,300,VALID,0,
2014-02-23, 00:54:05,VALID,1011.46,VALID,0,VALID,103.832,VALID,0.112112,VALID,22.4082,VALID,300,VALID,0,
2014-02-23, 00:55:05,VALID,1011.45,VALID,0,VALID,104,VALID,0,VALID,22.3481,VALID,300,VALID,0,
2014-02-23, 00:56:05,VALID,1011.44,VALID,0,VALID,104,VALID,0.112112,VALID,22.3498,VALID,301,VALID,0,
2014-02-23, 00:57:05,VALID,1011.41,VALID,0,VALID,104,VALID,0,VALID,22.3091,VALID,300,VALID,0,
2014-02-23, 00:58:05,VALID,1011.41,VALID,0,VALID,104,VALID,0,VALID,22.2702,VALID,300,VALID,0,
2014-02-23, 00:59:05,VALID,1011.39,VALID,0,VALID,104,VALID,0,VALID,22.2702,VALID,300,VALID,0,
2014-02-23, 01:00:05,VALID,1011.36,VALID,0,VALID,104,VALID,0,VALID,22.2507,VALID,300,VALID,0,
2014-02-23, 01:01:05,VALID,1011.37,VALID,0,VALID,104,VALID,0.112112,VALID,22.2719,VALID,301,VALID,0,
2014-02-23, 01:02:05,VALID,1011.35,VALID,0,VALID,104,VALID,0.112112,VALID,22.2507,VALID,300,VALID,0,
2014-02-23, 01:03:05,VALID,1011.34,VALID,0,VALID,104,VALID,0,VALID,22.2507,VALID,301,VALID,0,
2014-02-23, 01:04:05,VALID,1011.29,VALID,0,VALID,104,VALID,0,VALID,22.2507,VALID,301,VALID,0,
2014-02-23, 01:05:05,VALID,1011.28,VALID,0,VALID,104,VALID,0,VALID,22.2507,VALID,301,VALID,0,
2014-02-23, 01:06:05,VALID,1011.27,VALID,0,VALID,104,VALID,0.112112,VALID,22.2507,VALID,301,VALID,0,
2014-02-23, 01:07:05,VALID,1011.27,VALID,0,VALID,104,VALID,0.112112,VALID,22.2507,VALID,301,VALID,0,
2014-02-23, 01:08:05,VALID,1011.24,VALID,0,VALID,104,VALID,0.112112,VALID,22.2507,VALID,300,VALID,0,
2014-02-23, 01:09:05,VALID,1011.24,VALID,0,VALID,104,VALID,0,VALID,22.2296,VALID,300,VALID,0,
2014-02-23, 01:10:05,VALID,1011.23,VALID,0,VALID,104,VALID,0,VALID,22.2507,VALID,300,VALID,0,
2014-02-23, 01:11:05,VALID,1011.26,VALID,0,VALID,104,VALID,0,VALID,22.2507,VALID,301,VALID,0,
2014-02-23, 01:12:05,VALID,1011.23,VALID,0,VALID,104,VALID,0,VALID,22.2702,VALID,301,VALID,0,
2014-02-23, 01:13:05,VALID,1011.25,VALID,0,VALID,104,VALID,0.112112,VALID,22.2897,VALID,300,VALID,0,
2014-02-23, 01:14:05,VALID,1011.23,VALID,0,VALID,104,VALID,0.112112,VALID,22.2897,VALID,300,VALID,0,
2014-02-23, 01:15:05,VALID,1011.23,VALID,0,VALID,104,VALID,0.112112,VALID,22.3091,VALID,300,VALID,0.225391,
2014-02-23, 01:16:05,VALID,1011.23,VALID,0,VALID,104,VALID,0,VALID,22.2914,VALID,301,VALID,0.053125,
2014-02-23, 01:17:05,VALID,1011.17,VALID,0,VALID,104,VALID,0,VALID,22.3303,VALID,300,VALID,0.00117188,
2014-02-23, 01:18:05,VALID,1011.16,VALID,0,VALID,104,VALID,0,VALID,22.3303,VALID,300,VALID,0,
2014-02-23, 01:19:05,VALID,1011.15,VALID,0,VALID,104,VALID,0,VALID,22.3498,VALID,301,VALID,0,
2014-02-23, 01:20:05,VALID,1011.14,VALID,0,VALID,104,VALID,0,VALID,22.3693,VALID,301,VALID,0,
2014-02-23, 01:21:05,VALID,1011.12,VALID,0,VALID,104,VALID,0,VALID,22.3498,VALID,300,VALID,0,
2014-02-23, 01:22:05,VALID,1011.14,VALID,0,VALID,104,VALID,0,VALID,22.4099,VALID,300,VALID,0,
2014-02-23, 01:23:05,VALID,1011.09,VALID,0,VALID,104,VALID,0,VALID,22.3887,VALID,301,VALID,0,
2014-02-23, 01:24:05,VALID,1011.11,VALID,0,VALID,104,VALID,0,VALID,22.3693,VALID,300,VALID,0,
2014-02-23, 01:25:05,VALID,1011.12,VALID,0,VALID,104,VALID,0,VALID,22.3887,VALID,301,VALID,0,
2014-02-23, 01:26:05,VALID,1011.11,VALID,0,VALID,104,VALID,0,VALID,22.387,VALID,300,VALID,0,
2014-02-23, 01:27:05,VALID,1011.1,VALID,0,VALID,104,VALID,0,VALID,22.4082,VALID,300,VALID,0,
2014-02-23, 01:28:05,VALID,1011.09,VALID,0,VALID,104,VALID,0,VALID,22.4082,VALID,301,VALID,0,
2014-02-23, 01:29:05,VALID,1011.03,VALID,0,VALID,104,VALID,0,VALID,22.4065,VALID,301,VALID,0,
2014-02-23, 01:30:05,VALID,1011.01,VALID,0,VALID,104,VALID,0,VALID,22.4277,VALID,301,VALID,0,
2014-02-23, 01:31:05,VALID,1011,VALID,0,VALID,104,VALID,0.112112,VALID,22.4065,VALID,300,VALID,0,
2014-02-23, 01:32:05,VALID,1010.98,VALID,0,VALID,104,VALID,0,VALID,22.4472,VALID,301,VALID,0,
2014-02-23, 01:33:05,VALID,1010.98,VALID,0,VALID,104,VALID,0.112112,VALID,22.426,VALID,300,VALID,0,
2014-02-23, 01:34:05,VALID,1010.98,VALID,0,VALID,104,VALID,0.112112,VALID,22.465,VALID,301,VALID,0.320313,
2014-02-23, 01:35:05,VALID,1010.91,VALID,0,VALID,104,VALID,0.112112,VALID,22.4844,VALID,300,VALID,0.00742187,
2014-02-23, 01:36:05,VALID,1010.91,VALID,0,VALID,104,VALID,0,VALID,22.5446,VALID,301,VALID,0,
2014-02-23, 01:37:05,VALID,1010.87,VALID,0,VALID,104,VALID,0.112112,VALID,22.5429,VALID,301,VALID,0,
2014-02-23, 01:38:05,VALID,1010.88,VALID,0,VALID,104,VALID,0.112112,VALID,22.5623,VALID,301,VALID,0,
2014-02-23, 01:39:05,VALID,1010.87,VALID,0,VALID,104,VALID,0.112112,VALID,22.5234,VALID,301,VALID,0,
2014-02-23, 01:40:05,VALID,1010.86,VALID,0,VALID,104,VALID,0.112112,VALID,22.5234,VALID,302,VALID,0.365234,
2014-02-23, 01:41:05,VALID,1010.85,VALID,0,VALID,104,VALID,0,VALID,22.5429,VALID,302,VALID,0.329297,
2014-02-23, 01:42:05,VALID,1010.86,VALID,0,VALID,104,VALID,0.112112,VALID,22.5234,VALID,302,VALID,0.333203,
2014-02-23, 01:43:05,VALID,1010.85,VALID,0,VALID,104,VALID,0.112112,VALID,22.5429,VALID,302,VALID,0.0488281,
2014-02-23, 01:44:05,VALID,1010.85,VALID,0,VALID,104,VALID,0.112112,VALID,22.564,VALID,302,VALID,0,
2014-02-23, 01:45:05,VALID,1010.88,VALID,0,VALID,104,VALID,0.112112,VALID,22.5234,VALID,302,VALID,0,
2014-02-23, 01:46:05,VALID,1010.84,VALID,0,VALID,104,VALID,0.112112,VALID,22.5429,VALID,302,VALID,0,
2014-02-23, 01:47:05,VALID,1010.84,VALID,0,VALID,104,VALID,0.112112,VALID,22.5234,VALID,302,VALID,0,
2014-02-23, 01:48:05,VALID,1010.84,VALID,0,VALID,104,VALID,0.112112,VALID,22.5234,VALID,302,VALID,0,
2014-02-23, 01:49:05,VALID,1010.85,VALID,0,VALID,103.985,VALID,0.112112,VALID,22.465,VALID,302,VALID,0,
2014-02-23, 01:50:05,VALID,1010.85,VALID,0,VALID,104,VALID,0.112112,VALID,22.465,VALID,302,VALID,0,
2014-02-23, 01:51:05,VALID,1010.87,VALID,0,VALID,104,VALID,0,VALID,22.4243,VALID,302,VALID,0,
2014-02-23, 01:52:05,VALID,1010.86,VALID,0,VALID,104,VALID,0.112112,VALID,22.426,VALID,302,VALID,0,
2014-02-23, 01:53:05,VALID,1010.87,VALID,0,VALID,104,VALID,0.112112,VALID,22.4082,VALID,302,VALID,0,
2014-02-23, 01:54:05,VALID,1010.85,VALID,0,VALID,104,VALID,0.112112,VALID,22.3676,VALID,302,VALID,0,
2014-02-23, 01:55:05,VALID,1010.87,VALID,0,VALID,104,VALID,0.112112,VALID,22.3887,VALID,302,VALID,0,
2014-02-23, 01:56:05,VALID,1010.88,VALID,0,VALID,104,VALID,0.112112,VALID,22.3676,VALID,302,VALID,0,
2014-02-23, 01:57:05,VALID,1010.88,VALID,0,VALID,104,VALID,0,VALID,22.3481,VALID,302,VALID,0.0132813,
2014-02-23, 01:58:05,VALID,1010.87,VALID,0,VALID,104,VALID,0.112112,VALID,22.3887,VALID,302,VALID,0,
2014-02-23, 01:59:05,VALID,1010.91,VALID,0,VALID,104,VALID,0.112112,VALID,22.3481,VALID,302,VALID,0.0253906,
2014-02-23, 02:00:05,VALID,1010.88,VALID,0,VALID,104,VALID,0,VALID,22.3286,VALID,302,VALID,0,
2014-02-23, 02:01:05,VALID,1010.9,VALID,0,VALID,104,VALID,0.112112,VALID,22.3693,VALID,302,VALID,0,
2014-02-23, 02:02:05,VALID,1010.91,VALID,0,VALID,104,VALID,0,VALID,22.3498,VALID,302,VALID,0,
2014-02-23, 02:03:05,VALID,1010.92,VALID,0,VALID,104,VALID,0.112112,VALID,22.3286,VALID,302,VALID,0,
2014-02-23, 02:04:05,VALID,1010.9,VALID,0,VALID,104,VALID,0,VALID,22.3286,VALID,302,VALID,0,
2014-02-23, 02:05:05,VALID,1010.94,VALID,0,VALID,104,VALID,0,VALID,22.3498,VALID,302,VALID,0,
2014-02-23, 02:06:05,VALID,1010.94,VALID,0,VALID,104,VALID,0,VALID,22.3693,VALID,302,VALID,0,
2014-02-23, 02:07:05,VALID,1010.92,VALID,0,VALID,104,VALID,0.112112,VALID,22.3887,VALID,302,VALID,0,
2014-02-23, 02:08:05,VALID,1010.93,VALID,0,VALID,104,VALID,0.112112,VALID,22.4065,VALID,302,VALID,0,
2014-02-23, 02:09:05,VALID,1010.93,VALID,0,VALID,104,VALID,0.112112,VALID,22.4065,VALID,302,VALID,0,
2014-02-23, 02:10:05,VALID,1010.92,VALID,0,VALID,104,VALID,0,VALID,22.4472,VALID,302,VALID,0,
2014-02-23, 02:11:05,VALID,1010.97,VALID,0,VALID,104,VALID,0,VALID,22.4472,VALID,302,VALID,0,
2014-02-23, 02:12:05,VALID,1010.96,VALID,0,VALID,104,VALID,0,VALID,22.4861,VALID,302,VALID,0.123438,
2014-02-23, 02:13:05,VALID,1010.98,VALID,0,VALID,103.626,VALID,0.112112,VALID,22.5039,VALID,302,VALID,0.215625,
2014-02-23, 02:14:05,VALID,1010.98,VALID,0,VALID,102.299,VALID,0,VALID,22.5446,VALID,302,VALID,0,
2014-02-23, 02:15:05,VALID,1010.98,VALID,0,VALID,100.812,VALID,0.112112,VALID,22.5429,VALID,302,VALID,0,
2014-02-23, 02:16:05,VALID,1010.98,VALID,0,VALID,99.6305,VALID,0.112112,VALID,22.5835,VALID,320,VALID,0.335547,
2014-02-23, 02:17:05,VALID,1010.95,VALID,0,VALID,98.5095,VALID,0.112112,VALID,22.6225,VALID,320,VALID,0,
2014-02-23, 02:18:05,VALID,1010.92,VALID,0,VALID,97.3351,VALID,0.112112,VALID,22.6208,VALID,320,VALID,0,
2014-02-23, 02:19:05,VALID,1010.93,VALID,0,VALID,96.1455,VALID,0,VALID,22.6614,VALID,320,VALID,0,
2014-02-23, 02:20:05,VALID,1010.93,VALID,0,VALID,95.2609,VALID,0.112112,VALID,22.6792,VALID,320,VALID,0,
2014-02-23, 02:21:05,VALID,1010.93,VALID,0,VALID,94.3687,VALID,0,VALID,22.7004,VALID,320,VALID,0,
2014-02-23, 02:22:05,VALID,1010.93,VALID,0,VALID,93.5985,VALID,0.112112,VALID,22.6987,VALID,320,VALID,0,
2014-02-23, 02:23:05,VALID,1010.95,VALID,0,VALID,92.7292,VALID,0.112112,VALID,22.7376,VALID,320,VALID,0,
2014-02-23, 02:24:05,VALID,1010.95,VALID,0,VALID,92.6834,VALID,0.112112,VALID,22.7783,VALID,320,VALID,0,
2014-02-23, 02:25:05,VALID,1010.98,VALID,0,VALID,91.9285,VALID,0.112112,VALID,22.7961,VALID,320,VALID,0.349219,
2014-02-23, 02:26:05,VALID,1010.96,VALID,0,VALID,91.6005,VALID,0.112112,VALID,22.8173,VALID,320,VALID,0.06875,
2014-02-23, 02:27:05,VALID,1010.97,VALID,0,VALID,91.1964,VALID,0,VALID,22.8173,VALID,320,VALID,0,
2014-02-23, 02:28:05,VALID,1010.98,VALID,0,VALID,91.2421,VALID,0,VALID,22.8368,VALID,320,VALID,0,
2014-02-23, 02:29:05,VALID,1010.97,VALID,0,VALID,90.8914,VALID,0,VALID,22.835,VALID,320,VALID,0,
2014-02-23, 02:30:05,VALID,1010.96,VALID,0,VALID,90.5253,VALID,0.112112,VALID,22.8757,VALID,320,VALID,0,
2014-02-23, 02:31:05,VALID,1010.98,VALID,0,VALID,90.022,VALID,0,VALID,22.8757,VALID,320,VALID,0,
2014-02-23, 02:32:05,VALID,1010.98,VALID,0,VALID,89.6179,VALID,0,VALID,22.8935,VALID,320,VALID,0,
2014-02-23, 02:33:05,VALID,1010.95,VALID,0,VALID,89.3433,VALID,0,VALID,22.8935,VALID,320,VALID,0,
2014-02-23, 02:34:05,VALID,1010.95,VALID,0,VALID,89.0078,VALID,0.112112,VALID,22.9129,VALID,320,VALID,0,
2014-02-23, 02:35:05,VALID,1010.93,VALID,0,VALID,88.7104,VALID,0,VALID,22.9536,VALID,320,VALID,0,
2014-02-23, 02:36:05,VALID,1010.94,VALID,0,VALID,88.5426,VALID,0,VALID,22.9731,VALID,320,VALID,0,
2014-02-23, 02:37:05,VALID,1010.94,VALID,0,VALID,88.5502,VALID,0,VALID,22.9731,VALID,320,VALID,0,
2014-02-23, 02:38:05,VALID,1010.96,VALID,0,VALID,88.3749,VALID,0,VALID,22.9926,VALID,319,VALID,0.285937,
2014-02-23, 02:39:05,VALID,1010.97,VALID,0,VALID,88.474,VALID,0,VALID,22.9714,VALID,319,VALID,0.207813,
2014-02-23, 02:40:05,VALID,1010.97,VALID,0,VALID,88.5121,VALID,0,VALID,22.9731,VALID,320,VALID,0.0351563,
2014-02-23, 02:41:05,VALID,1011,VALID,0,VALID,88.8095,VALID,0,VALID,22.9536,VALID,320,VALID,0.416797,
2014-02-23, 02:42:05,VALID,1011,VALID,0,VALID,88.7866,VALID,0,VALID,22.9536,VALID,320,VALID,0.242969,
2014-02-23, 02:43:05,VALID,1011.02,VALID,0,VALID,88.779,VALID,0,VALID,22.9147,VALID,320,VALID,0.160156,
2014-02-23, 02:44:05,VALID,1011.03,VALID,0,VALID,88.9163,VALID,0.112112,VALID,22.9147,VALID,320,VALID,0.161719,
2014-02-23, 02:45:05,VALID,1011.06,VALID,0,VALID,88.901,VALID,0,VALID,22.874,VALID,323,VALID,0.584375,
2014-02-23, 02:46:05,VALID,1011.08,VALID,0,VALID,88.9468,VALID,0.112112,VALID,22.8952,VALID,323,VALID,0.472656,
2014-02-23, 02:47:05,VALID,1011.06,VALID,0,VALID,89.0459,VALID,0,VALID,22.8952,VALID,323,VALID,0.286719,
2014-02-23, 02:48:05,VALID,1011.08,VALID,0,VALID,89.0841,VALID,0,VALID,22.8545,VALID,323,VALID,0.415625,
2014-02-23, 02:49:05,VALID,1011.09,VALID,0,VALID,88.9925,VALID,0,VALID,22.8757,VALID,324,VALID,0,
2014-02-23, 02:50:05,VALID,1011.1,VALID,0,VALID,88.9544,VALID,0,VALID,22.8757,VALID,324,VALID,0,
2014-02-23, 02:51:05,VALID,1011.1,VALID,0,VALID,88.9087,VALID,0,VALID,22.8757,VALID,323,VALID,0,
2014-02-23, 02:52:05,VALID,1011.08,VALID,0,VALID,88.8705,VALID,0,VALID,22.8757,VALID,323,VALID,0,
2014-02-23, 02:53:05,VALID,1011.06,VALID,0,VALID,88.8477,VALID,0,VALID,22.8562,VALID,322,VALID,0,
2014-02-23, 02:54:05,VALID,1011.08,VALID,0,VALID,88.9849,VALID,0,VALID,22.8562,VALID,322,VALID,0,
2014-02-23, 02:55:05,VALID,1011.05,VALID,0,VALID,88.9925,VALID,0,VALID,22.8368,VALID,322,VALID,0.498828,
2014-02-23, 02:56:05,VALID,1011.01,VALID,0,VALID,89.0383,VALID,0,VALID,22.8368,VALID,323,VALID,0.332422,
2014-02-23, 02:57:05,VALID,1010.99,VALID,0,VALID,88.962,VALID,0,VALID,22.8368,VALID,323,VALID,0.227344,
2014-02-23, 02:58:05,VALID,1010.97,VALID,0,VALID,89.0078,VALID,0,VALID,22.8173,VALID,322,VALID,0.179297,
2014-02-23, 02:59:05,VALID,1011,VALID,0,VALID,89.0917,VALID,0,VALID,22.8173,VALID,323,VALID,0.464844,
2014-02-23, 03:00:05,VALID,1010.97,VALID,0,VALID,89.1146,VALID,0,VALID,22.7961,VALID,323,VALID,0.239453,
2014-02-23, 03:01:05,VALID,1010.95,VALID,0,VALID,89.1298,VALID,0,VALID,22.7978,VALID,323,VALID,0.214844,
2014-02-23, 03:02:05,VALID,1010.96,VALID,0,VALID,89.2137,VALID,0,VALID,22.7571,VALID,323,VALID,0.0316406,
2014-02-23, 03:03:05,VALID,1010.95,VALID,0,VALID,89.3891,VALID,0,VALID,22.7376,VALID,323,VALID,0.417578,
2014-02-23, 03:04:05,VALID,1010.98,VALID,0,VALID,89.5721,VALID,0.112112,VALID,22.7376,VALID,323,VALID,0.418359,
2014-02-23, 03:05:05,VALID,1010.97,VALID,0,VALID,89.7246,VALID,0,VALID,22.7004,VALID,323,VALID,0.235938,
2014-02-23, 03:06:05,VALID,1010.97,VALID,0,VALID,89.9229,VALID,0,VALID,22.6597,VALID,323,VALID,0.0148437,
2014-02-23, 03:07:05,VALID,1011,VALID,0,VALID,90.0525,VALID,0,VALID,22.6402,VALID,323,VALID,0.367578,
2014-02-23, 03:08:05,VALID,1011.04,VALID,0,VALID,90.4872,VALID,0,VALID,22.642,VALID,323,VALID,0,
2014-02-23, 03:09:05,VALID,1011.03,VALID,0,VALID,90.9447,VALID,0.112112,VALID,22.6208,VALID,322,VALID,0.237109,
2014-02-23, 03:10:05,VALID,1011.04,VALID,0,VALID,91.3642,VALID,0,VALID,22.5818,VALID,323,VALID,0.238281,
2014-02-23, 03:11:05,VALID,1011.03,VALID,0,VALID,91.6158,VALID,0.112112,VALID,22.5623,VALID,323,VALID,0.276563,
2014-02-23, 03:12:05,VALID,1011.05,VALID,0,VALID,91.8751,VALID,0,VALID,22.564,VALID,323,VALID,0.185937,
2014-02-23, 03:13:05,VALID,1011.05,VALID,0,VALID,92.0352,VALID,0,VALID,22.5446,VALID,323,VALID,0.1375,
2014-02-23, 03:14:05,VALID,1011.05,VALID,0,VALID,92.6071,VALID,0,VALID,22.5039,VALID,323,VALID,0,
2014-02-23, 03:15:05,VALID,1011.06,VALID,0,VALID,93.7053,VALID,0,VALID,22.5056,VALID,323,VALID,0.284375,
2014-02-23, 03:16:05,VALID,1011.07,VALID,0,VALID,94.567,VALID,0,VALID,22.465,VALID,323,VALID,0,
2014-02-23, 03:17:05,VALID,1011.05,VALID,0,VALID,95.3067,VALID,0,VALID,22.4472,VALID,323,VALID,0,
2014-02-23, 03:18:05,VALID,1011.08,VALID,0,VALID,96.7098,VALID,0,VALID,22.426,VALID,323,VALID,0,
2014-02-23, 03:19:05,VALID,1011.03,VALID,0,VALID,97.297,VALID,0,VALID,22.4065,VALID,323,VALID,0,
2014-02-23, 03:20:05,VALID,1011.04,VALID,0,VALID,97.6783,VALID,0,VALID,22.387,VALID,323,VALID,0,
2014-02-23, 03:21:05,VALID,1011.04,VALID,0,VALID,97.9223,VALID,0,VALID,22.3676,VALID,323,VALID,0,
2014-02-23, 03:22:05,VALID,1011.01,VALID,0,VALID,98.479,VALID,0,VALID,22.387,VALID,323,VALID,0,
2014-02-23, 03:23:05,VALID,1011.03,VALID,0,VALID,98.8603,VALID,0,VALID,22.3887,VALID,323,VALID,0,
2014-02-23, 03:24:04,VALID,1011.04,VALID,0,VALID,99.3178,VALID,0,VALID,22.3693,VALID,323,VALID,0,
2014-02-23, 03:25:04,VALID,1011.04,VALID,0,VALID,99.539,VALID,0,VALID,22.3498,VALID,323,VALID,0,
2014-02-23, 03:26:04,VALID,1011.01,VALID,0,VALID,99.4551,VALID,0,VALID,22.3303,VALID,323,VALID,0,
2014-02-23, 03:27:04,VALID,1011.02,VALID,0,VALID,99.539,VALID,0,VALID,22.3108,VALID,323,VALID,0,
2014-02-23, 03:28:04,VALID,1011.05,VALID,0,VALID,99.7754,VALID,0.112112,VALID,22.2702,VALID,323,VALID,0,
2014-02-23, 03:29:04,VALID,1011.03,VALID,0,VALID,99.9584,VALID,0,VALID,22.2312,VALID,322,VALID,0,
2014-02-23, 03:30:04,VALID,1011.04,VALID,0,VALID,100.675,VALID,0,VALID,22.2312,VALID,323,VALID,0.1625,
2014-02-23, 03:31:04,VALID,1011.06,VALID,0,VALID,101.232,VALID,0,VALID,22.2118,VALID,323,VALID,0.161328,
2014-02-23, 03:32:04,VALID,1011.08,VALID,0,VALID,101.903,VALID,0,VALID,22.2312,VALID,323,VALID,0,
2014-02-23, 03:33:04,VALID,1011.07,VALID,0,VALID,101.994,VALID,0.112112,VALID,22.1923,VALID,323,VALID,0.292578,
2014-02-23, 03:34:04,VALID,1011.07,VALID,0,VALID,102.094,VALID,0,VALID,22.1923,VALID,323,VALID,0.267188,
2014-02-23, 03:35:04,VALID,1011.09,VALID,0,VALID,102.788,VALID,0,VALID,22.1728,VALID,323,VALID,0,
2014-02-23, 03:36:04,VALID,1011.1,VALID,0,VALID,103.504,VALID,0,VALID,22.1533,VALID,322,VALID,0.0191406,
2014-02-23, 03:37:04,VALID,1011.11,VALID,0,VALID,103.459,VALID,0,VALID,22.194,VALID,323,VALID,0,
2014-02-23, 03:38:04,VALID,1011.1,VALID,0,VALID,103.481,VALID,0.112112,VALID,22.1322,VALID,322,VALID,0,
2014-02-23, 03:39:04,VALID,1011.1,VALID,0,VALID,103.382,VALID,0,VALID,22.1339,VALID,323,VALID,0,
2014-02-23, 03:40:04,VALID,1011.13,VALID,0,VALID,103.726,VALID,0,VALID,22.1144,VALID,323,VALID,0,
2014-02-23, 03:41:04,VALID,1011.11,VALID,0,VALID,103.878,VALID,0,VALID,22.0949,VALID,322,VALID,0,
2014-02-23, 03:42:04,VALID,1011.15,VALID,0,VALID,104,VALID,0,VALID,22.0949,VALID,322,VALID,0,
2014-02-23, 03:43:04,VALID,1011.12,VALID,0,VALID,104,VALID,0.112112,VALID,22.0949,VALID,323,VALID,0.260547,
2014-02-23, 03:44:04,VALID,1011.14,VALID,0,VALID,104,VALID,0,VALID,22.1144,VALID,323,VALID,0.0140625,
2014-02-23, 03:45:04,VALID,1011.11,VALID,0,VALID,104,VALID,0,VALID,22.056,VALID,322,VALID,0,
2014-02-23, 03:46:04,VALID,1011.11,VALID,0,VALID,104,VALID,0.112112,VALID,22.0365,VALID,322,VALID,0,
2014-02-23, 03:47:04,VALID,1011.12,VALID,0,VALID,104,VALID,0.112112,VALID,22.0365,VALID,323,VALID,0,
2014-02-23, 03:48:04,VALID,1011.15,VALID,0,VALID,104,VALID,0,VALID,22.017,VALID,322,VALID,0,
2014-02-23, 03:49:04,VALID,1011.15,VALID,0,VALID,104,VALID,0,VALID,22.0187,VALID,322,VALID,0,
2014-02-23, 03:50:04,VALID,1011.19,VALID,0,VALID,104,VALID,0.112112,VALID,21.9781,VALID,323,VALID,0,
2014-02-23, 03:51:04,VALID,1011.2,VALID,0,VALID,104,VALID,0,VALID,21.9586,VALID,323,VALID,0,
2014-02-23, 03:52:04,VALID,1011.2,VALID,0,VALID,104,VALID,0,VALID,21.9391,VALID,322,VALID,0,
2014-02-23, 03:53:04,VALID,1011.2,VALID,0,VALID,104,VALID,0,VALID,21.9002,VALID,323,VALID,0,
2014-02-23, 03:54:04,VALID,1011.19,VALID,0,VALID,104,VALID,0.112112,VALID,21.9002,VALID,322,VALID,0,